Friday Harbor, WA

4:26 PM PST on December 03, 2016 (GMT -0800)
Friday Harbor

Weather History for KFHR - March, 2014

Change the Weather History Date:

Wednesday, March 5, 2014

  Actual Average Record
Temperature  
Mean Temperature 46 °F -  
Max Temperature 53 °F 47 °F 59 °F (2016)
Min Temperature 39 °F 35 °F 28 °F (1999)
Degree Days  
Heating Degree Days 19    
Moisture  
Dew Point 44 °F    
Average Humidity 93    
Maximum Humidity 100    
Minimum Humidity 80    
Precipitation  
Precipitation 0.35 in - - ()
Sea Level Pressure  
Sea Level Pressure 29.59 in    
Wind  
Wind Speed 6 mph (NE)    
Max Wind Speed 14 mph    
Max Gust Speed 21 mph    
Visibility 8 miles    
Events Rain    
Averages and records for this station are not official NWS values.
T = Trace of Precipitation, MM = Missing Value Source: NWS Daily Summary

Daily Weather History Graph

Daily Weather History Graph

Search for Another Location

Airport or City:

Trip Planner

Search our weather history database for the weather conditions in past years. The results will help you decide how hot, cold, wet, or windy it might be!

Date:

Astronomy

Mar. 05, 2014 Rise Set
Actual Time 6:45 AM PST 6:02 PM PST
Civil Twilight 6:14 AM PST 6:33 PM PST
Nautical Twilight 5:37 AM PST 7:10 PM PST
Astronomical Twilight 5:01 AM PST 7:46 PM PST
Moon 8:50 AM PST (3/5) 11:43 PM PST (3/5)
Length of Visible Light 12h 19m
Length of Day
11h 16m
Waxing Crescent, 24% of the Moon is Illuminated
Mar 5
Waxing Crescent
Mar 8
First Quarter
Mar 16
Full
Mar 23
Last Quarter
Mar 30
New

Hourly Weather History & Observations

Time (PST) Temp. Windchill Dew Point Humidity Pressure Visibility Wind Dir Wind Speed Gust Speed Precip Events Conditions
12:11 AM 39.9 °F 35.1 °F 37.9 °F 93% 29.83 in 5.0 mi NNW 6.9 mph - 0.00 in Rain Light Rain
12:53 AM 39.9 °F 37.8 °F 39.0 °F 97% 29.82 in 6.0 mi NNW 3.5 mph - 0.01 in Rain Light Rain
1:53 AM 39.9 °F 35.8 °F 39.0 °F 97% 29.78 in 6.0 mi NNW 5.8 mph - 0.03 in Rain Light Rain
2:53 AM 39.9 °F 35.8 °F 39.0 °F 97% 29.74 in 5.0 mi NNW 5.8 mph - 0.00 in Rain Light Rain
3:18 AM 39.9 °F 35.8 °F 37.9 °F 93% 29.72 in 5.0 mi North 5.8 mph - 0.00 in Rain Light Rain
3:42 AM 39.9 °F 35.8 °F 39.0 °F 97% 29.71 in 7.0 mi North 5.8 mph - 0.01 in Rain Light Rain
3:53 AM 39.9 °F 35.8 °F 39.0 °F 97% 29.72 in 10.0 mi Variable 5.8 mph - 0.01 in Rain Light Rain
4:16 AM 41.0 °F 35.8 °F 39.0 °F 93% 29.69 in 9.0 mi North 8.1 mph - 0.00 in Rain Light Rain
4:53 AM 41.0 °F 38.0 °F 39.9 °F 96% 29.66 in 8.0 mi NNW 4.6 mph - 0.00 in Rain Light Rain
5:12 AM 41.0 °F 39.0 °F 39.9 °F 96% 29.65 in 10.0 mi NNW 3.5 mph - 0.00 in Rain Light Rain
5:53 AM 41.0 °F 36.4 °F 39.9 °F 96% 29.68 in 4.0 mi WSW 6.9 mph - 0.04 in Rain Light Rain
6:51 AM 41.0 °F 35.2 °F 39.2 °F 93% 29.64 in 10.0 mi North 9.2 mph - 0.09 in Rain Light Rain
6:53 AM 41.0 °F 35.8 °F 39.9 °F 96% 29.64 in 10.0 mi NNE 8.1 mph - 0.09 in Rain Light Rain
7:32 AM 42.1 °F 38.4 °F 41.0 °F 96% 29.61 in 10.0 mi East 5.8 mph - 0.00 in   Overcast
7:53 AM 43.0 °F 40.3 °F 42.1 °F 97% 29.63 in 10.0 mi East 4.6 mph - 0.00 in   Overcast
8:53 AM 44.1 °F - 44.1 °F 100% 29.65 in 8.0 mi Calm Calm - 0.00 in Rain Light Rain
9:13 AM 46.0 °F 44.8 °F 45.0 °F 96% 29.65 in 10.0 mi Variable 3.5 mph - 0.00 in   Overcast
9:49 AM 46.4 °F - 46.4 °F 100% 29.66 in 6.0 mi Calm Calm - 0.00 in   Overcast
9:53 AM 46.9 °F - 46.0 °F 97% 29.66 in 5.0 mi Calm Calm - 0.00 in   Overcast
10:53 AM 48.9 °F - 46.9 °F 93% 29.67 in 9.0 mi Variable 3.5 mph - N/A   Overcast
11:19 AM 50.0 °F - 48.0 °F 93% 29.66 in 10.0 mi ESE 4.6 mph - N/A   Mostly Cloudy
11:53 AM 50.0 °F - 48.0 °F 93% 29.67 in 10.0 mi Variable 5.8 mph - N/A   Scattered Clouds
12:53 PM 52.0 °F - 46.9 °F 83% 29.66 in 10.0 mi SE 9.2 mph - N/A   Partly Cloudy
1:53 PM 53.1 °F - 46.9 °F 80% 29.64 in 10.0 mi SSE 3.5 mph - N/A   Scattered Clouds
2:53 PM 52.0 °F - 46.9 °F 83% 29.60 in 10.0 mi Variable 3.5 mph - N/A   Mostly Cloudy
3:53 PM 51.1 °F - 46.9 °F 86% 29.57 in 10.0 mi NE 8.1 mph - N/A   Scattered Clouds
4:53 PM 51.1 °F - 45.0 °F 80% 29.52 in 10.0 mi NNE 6.9 mph - N/A   Overcast
5:53 PM 50.0 °F - 45.0 °F 83% 29.47 in 10.0 mi North 8.1 mph - 0.00 in Rain Light Rain
6:10 PM 50.0 °F - 46.0 °F 86% 29.46 in 10.0 mi NNE 5.8 mph - 0.00 in   Overcast
6:53 PM 50.0 °F - 46.0 °F 86% 29.45 in 9.0 mi NE 4.6 mph - 0.00 in Rain Light Rain
7:23 PM 50.0 °F - 48.0 °F 93% 29.46 in 4.0 mi Calm Calm - 0.07 in Rain Rain
7:53 PM 51.1 °F - 48.9 °F 92% 29.44 in 5.0 mi East 9.2 mph - 0.12 in Rain Rain
8:32 PM 50.0 °F - 48.9 °F 96% 29.41 in 10.0 mi East 8.1 mph - 0.01 in Rain Light Rain
8:53 PM 50.0 °F - 48.0 °F 93% 29.41 in 10.0 mi East 10.4 mph - 0.01 in   Overcast
9:12 PM 50.0 °F - 48.0 °F 93% 29.39 in 10.0 mi East 10.4 mph - 0.00 in Rain Light Rain
9:53 PM 48.9 °F - 46.9 °F 93% 29.39 in 10.0 mi ESE 6.9 mph - 0.00 in Rain Light Rain
10:10 PM 50.0 °F - 46.9 °F 89% 29.38 in 10.0 mi East 11.5 mph - 0.00 in Rain Light Rain
10:53 PM 50.0 °F - 46.9 °F 89% 29.37 in 10.0 mi ESE 12.7 mph 20.7 mph 0.00 in Rain Light Rain
11:43 PM 50.0 °F - 48.9 °F 96% 29.38 in 8.0 mi SE 13.8 mph 18.4 mph 0.04 in Rain Light Rain
11:53 PM 50.0 °F - 48.9 °F 96% 29.39 in 10.0 mi SSE 11.5 mph - 0.04 in   Mostly Cloudy